View from above orbital plane
|
View from above satellite
|
Ground track
|
The orbit data is extracted from the following two-line orbital elements,
1 23087U 94023A 21016.56537519 -.00000199 00000-0 -80140-4 0 9997
2 23087 71.0550 142.2116 0008821 358.4198 1.6895 14.13824041379314
Epoch (UTC): | 16 January 2021 13:34:08 |
Eccentricity: | 0.0008821 |
inclination: | 71.0550° |
perigee height: | 840 km |
apogee height: | 852 km |
right ascension of ascending node: | 142.2116° |
argument of perigee: | 358.4198° |
revolutions per day: | 14.13824041 |
mean anomaly at epoch: | 1.6895° |
orbit number at epoch: | 37931 |
The dashed part of the orbit path shows where the satellite is in the earth's shadow,
|
|